Notices

What's New in latest Release from April 7th, 2021:

- Updated Glossary, including Speed of Maximum Gust, and Total Hourly Precipitation

- Updated national and regional climate services offices contacts and prices information

- Addition of station inventory lists for 1981-2010, 1971-2000, and 1961-1990 Normals.

If you haven't already, please take our survey and provide feedback about our website: https://eccc.sondage-survey.ca/f/LanguageSelection.aspx?s=442ca660-fcf1-47c0-95a9-59707d6fd709

Hourly Data Report for April 12, 2017

KUGAARUK CLIMATE
NUNAVUT

68°32'15.060" N
89°47'47.020" W
15.80 m
2303094
71407
NBB

Download Data

Hourly Data (April 2017)
Hourly Data Report for April 12, 2017
TIME
LST
Temp Definition
°C
Dew Point Definition
°C
Rel Hum Definition
%
Precip. Amount Definition
mm

Wind Dir Definition
10's deg

Wind Spd Definition
km/h
Visibility Definition
km
Stn Press Definition
kPa
Hmdx Definition


Wind Chill Definition


Weather Definition


00:00 -25.3 -28.3 76 0.0 24 26   102.06   -39 LegendNANA
01:00 -25.1 -28.1 76 0.0 24 28   102.06   -39 LegendNANA
02:00 -25.8 -28.9 75 0.0 25 28   102.08   -40 LegendNANA
03:00 -25.8 -29.0 75 0.0 24 30   102.12   -40 LegendNANA
04:00 -25.8 -28.9 75 0.0 26 37   102.08   -41 LegendNANA
05:00 -25.6 -28.7 75 0.0 26 39   102.11   -41 LegendNANA
06:00 -24.5 -27.5 76 0.0 25 35   102.09   -39 LegendNANA
07:00 -24.1 -27.2 75 0.0 25 29   102.12   -38 LegendNANA
08:00 -23.2 -26.2 76 0.0 22 27   102.08   -36 LegendNANA
09:00 -22.3 -25.4 76 0.0 25 32   102.00   -36 LegendNANA
10:00 -22.7 -25.8 76 0.0 27 30   101.99   -36 LegendNANA
11:00 -22.9 -26.3 74 0.0 27 32   101.95   -37 LegendNANA
12:00 -22.9 -26.2 74 0.0 28 37   101.94   -38 LegendNANA
13:00 -22.9 -26.3 73 0.0 29 29   101.97   -36 LegendNANA
14:00 -23.2 -26.5 74 0.0 28 40   101.93   -38 LegendNANA
15:00 -22.5 -25.6 76 0.0 28 28   101.94   -35 LegendNANA
16:00 -23.1 -26.3 75 0.0 28 33   101.93   -37 LegendNANA
17:00 -23.5 -26.5 76 0.0 28 28   101.94   -37 LegendNANA
18:00 -23.9 -26.7 77 0.0 28 29   101.92   -37 LegendNANA
19:00 -25.2 -28.2 76 0.0 28 28   101.95   -39 LegendNANA
20:00 -26.1 -29.3 75 0.0 28 27   101.91   -40 LegendNANA
21:00 -26.8 -30.0 74 0.0 28 22   101.91   -40 LegendNANA
22:00 -27.3 -30.6 74 0.0 28 17   101.91   -39 LegendNANA
23:00 -27.9 -31.2 74 0.0 26 14   101.95   -38 LegendNANA

Notes on Data Quality.

Legend

  • E = Estimated
  • M = Missing
  • NA = Not Available*
  • [empty] = Indicates an unobserved value
Date modified: